| time (UTC) | temp F | wind direction | speed knots | gust knots | rain 1hr in | rain 24hr in | rain mn in | humidity % | barometer mb |
| 20260504031504 | 55 | 15 | 0.0 | 1.7 | 0.00 | 0.00 | 0.00 | 43 | 1010.5 |
| 20260504030002 | 55 | 20 | 0.0 | 1.7 | 0.00 | 0.00 | 0.00 | 42 | 1010.5 |
| 20260504025502 | 55 | 11 | 0.9 | 2.6 | 0.00 | 0.00 | 0.00 | 41 | 1010.4 |
| 20260504025003 | 56 | 357 | 1.7 | 2.6 | 0.00 | 0.00 | 0.00 | 41 | 1010.4 |
| 20260504024502 | 56 | 12 | 1.7 | 4.3 | 0.00 | 0.00 | 0.00 | 40 | 1010.5 |
| 20260504023503 | 56 | 4 | 1.7 | 2.6 | 0.00 | 0.00 | 0.00 | 40 | 1010.5 |
| 20260504022002 | 56 | 10 | 0.9 | 2.6 | 0.00 | 0.00 | 0.00 | 40 | 1010.5 |
| 20260504021503 | 56 | 6 | 1.7 | 2.6 | 0.00 | 0.00 | 0.00 | 39 | 1010.5 |
| 20260504015502 | 56 | 10 | 0.9 | 2.6 | 0.00 | 0.00 | 0.00 | 39 | 1010.5 |
| 20260504015003 | 56 | 355 | 0.9 | 1.7 | 0.00 | 0.00 | 0.00 | 39 | 1010.4 |
| 20260504013502 | 56 | 42 | 0.0 | 0.0 | 0.00 | 0.00 | 0.00 | 39 | 1010.2 |
| 20260504013004 | 56 | 42 | 0.0 | 0.0 | 0.00 | 0.00 | 0.00 | 39 | 1010.2 |
| 20260504012502 | 56 | 42 | 0.0 | 0.0 | 0.00 | 0.00 | 0.00 | 39 | 1010.2 |
| 20260504011503 | 56 | 42 | 0.0 | 0.9 | 0.00 | 0.00 | 0.00 | 38 | 1010.1 |
| 20260504011004 | 56 | 42 | 0.0 | 0.0 | 0.00 | 0.00 | 0.00 | 38 | 1010.1 |
| 20260504010003 | 57 | 42 | 0.0 | 0.0 | 0.00 | 0.00 | 0.00 | 38 | 1009.9 |
| 20260504005002 | 57 | 42 | 0.0 | 0.0 | 0.00 | 0.00 | 0.00 | 36 | 1009.8 |
| 20260504003504 | 58 | 42 | 0.0 | 0.0 | 0.00 | 0.00 | 0.00 | 36 | 1009.7 |
| 20260504003003 | 58 | 42 | 0.0 | 0.0 | 0.00 | 0.00 | 0.00 | 35 | 1009.6 |
| 20260504002003 | 59 | 42 | 0.0 | 0.0 | 0.00 | 0.00 | 0.00 | 34 | 1009.4 |
| 20260504001003 | 59 | 58 | 0.0 | 1.7 | 0.00 | 0.00 | 0.00 | 34 | 1009.2 |
| 20260504000502 | 59 | 60 | 0.0 | 0.9 | 0.00 | 0.00 | 0.00 | 34 | 1009.1 |
| 20260504000002 | 60 | 60 | 0.0 | 0.0 | 0.00 | 0.00 | 0.00 | 33 | 1009.1 |
| 20260503235003 | 60 | 60 | 0.9 | 2.6 | 0.00 | 0.00 | 0.00 | 32 | 1009.0 |
| 20260503234004 | 60 | 327 | 0.9 | 2.6 | 0.00 | 0.00 | 0.00 | 31 | 1008.8 |
| 20260503233503 | 60 | 264 | 0.9 | 2.6 | 0.00 | 0.00 | 0.00 | 31 | 1008.8 |
| 20260503233003 | 60 | 50 | 1.7 | 2.6 | 0.00 | 0.00 | 0.00 | 31 | 1008.6 |
| 20260503232504 | 60 | 193 | 0.9 | 2.6 | 0.00 | 0.00 | 0.00 | 32 | 1008.6 |
| 20260503231003 | 61 | 345 | 0.9 | 2.6 | 0.00 | 0.00 | 0.00 | 30 | 1008.6 |
| 20260503230502 | 61 | 23 | 0.9 | 1.7 | 0.00 | 0.00 | 0.00 | 30 | 1008.6 |
| 20260503224503 | 61 | 339 | 1.7 | 4.3 | 0.00 | 0.00 | 0.00 | 29 | 1008.5 |
| 20260503224003 | 61 | 43 | 1.7 | 6.1 | 0.00 | 0.00 | 0.00 | 29 | 1008.4 |
| 20260503220503 | 61 | 238 | 1.7 | 6.1 | 0.00 | 0.00 | 0.00 | 28 | 1008.4 |
| 20260503220002 | 61 | 210 | 2.6 | 7.0 | 0.00 | 0.00 | 0.00 | 28 | 1008.4 |
| 20260503215503 | 61 | 88 | 1.7 | 5.2 | 0.00 | 0.00 | 0.00 | 29 | 1008.5 |
| 20260503214503 | 61 | 241 | 1.7 | 5.2 | 0.00 | 0.00 | 0.00 | 28 | 1008.4 |
| 20260503214002 | 61 | 47 | 2.6 | 7.8 | 0.00 | 0.00 | 0.00 | 29 | 1008.5 |
| 20260503213502 | 61 | 206 | 2.6 | 6.1 | 0.00 | 0.00 | 0.00 | 28 | 1008.5 |
| 20260503213003 | 61 | 188 | 1.7 | 5.2 | 0.00 | 0.00 | 0.00 | 28 | 1008.5 |
| 20260503212503 | 61 | 68 | 4.3 | 7.8 | 0.00 | 0.00 | 0.00 | 29 | 1008.4 |
| 20260503210003 | 60 | 55 | 2.6 | 7.0 | 0.00 | 0.00 | 0.00 | 30 | 1008.3 |
| 20260503205504 | 60 | 72 | 2.6 | 6.1 | 0.00 | 0.00 | 0.00 | 30 | 1008.3 |
| 20260503205002 | 60 | 327 | 2.6 | 6.1 | 0.00 | 0.00 | 0.00 | 29 | 1008.3 |
| 20260503204003 | 60 | 329 | 2.6 | 7.0 | 0.00 | 0.00 | 0.00 | 30 | 1008.4 |
| 20260503202503 | 60 | 357 | 2.6 | 7.8 | 0.00 | 0.00 | 0.00 | 30 | 1008.5 |
| 20260503200503 | 60 | 344 | 2.6 | 7.8 | 0.00 | 0.00 | 0.00 | 31 | 1008.6 |
| 20260503200003 | 59 | 177 | 1.7 | 5.2 | 0.00 | 0.00 | 0.00 | 32 | 1008.6 |
| 20260503195504 | 59 | 284 | 2.6 | 7.0 | 0.00 | 0.00 | 0.00 | 30 | 1008.7 |
| 20260503194503 | 60 | 82 | 2.6 | 7.0 | 0.00 | 0.00 | 0.00 | 31 | 1008.8 |
| 20260503193503 | 59 | 21 | 3.5 | 8.7 | 0.00 | 0.00 | 0.00 | 31 | 1008.9 |
| 20260503193003 | 60 | 72 | 2.6 | 7.8 | 0.00 | 0.00 | 0.00 | 32 | 1008.9 |
| 20260503191003 | 58 | 62 | 3.5 | 7.8 | 0.00 | 0.00 | 0.00 | 33 | 1009.0 |
| 20260503185502 | 58 | 113 | 2.6 | 7.0 | 0.00 | 0.00 | 0.00 | 35 | 1009.0 |
| 20260503185002 | 59 | 61 | 2.6 | 4.3 | 0.00 | 0.00 | 0.00 | 34 | 1009.2 |
| 20260503184502 | 58 | 1 | 1.7 | 2.6 | 0.00 | 0.00 | 0.00 | 35 | 1009.3 |
| 20260503183503 | 57 | 318 | 1.7 | 4.3 | 0.00 | 0.00 | 0.00 | 36 | 1009.3 |
| 20260503182505 | 57 | 310 | 2.6 | 7.8 | 0.00 | 0.00 | 0.00 | 35 | 1009.4 |
| 20260503180003 | 56 | 210 | 1.7 | 7.0 | 0.00 | 0.00 | 0.00 | 40 | 1009.6 |
| 20260503175503 | 56 | 353 | 2.6 | 10.4 | 0.00 | 0.00 | 0.00 | 40 | 1009.8 |
| 20260503175004 | 55 | 350 | 1.7 | 5.2 | 0.00 | 0.00 | 0.00 | 39 | 1009.6 |
| 20260503174003 | 55 | 204 | 1.7 | 5.2 | 0.00 | 0.00 | 0.00 | 41 | 1009.7 |
| 20260503173003 | 55 | 61 | 2.6 | 5.2 | 0.00 | 0.00 | 0.00 | 40 | 1009.7 |
| 20260503172504 | 55 | 44 | 2.6 | 7.8 | 0.00 | 0.00 | 0.00 | 40 | 1009.8 |
| 20260503172003 | 54 | 102 | 2.6 | 7.0 | 0.00 | 0.00 | 0.00 | 41 | 1010.0 |
| 20260503171503 | 54 | 258 | 2.6 | 5.2 | 0.00 | 0.00 | 0.00 | 41 | 1009.8 |
| 20260503171003 | 54 | 45 | 1.7 | 5.2 | 0.00 | 0.00 | 0.00 | 41 | 1009.8 |
| 20260503151003 | 52 | 300 | 2.6 | 6.1 | 0.00 | 0.00 | 0.00 | 37 | 1010.2 |
| 20260503150503 | 52 | 158 | 1.7 | 6.1 | 0.00 | 0.00 | 0.00 | 37 | 1010.2 |
| 20260503131004 | 48 | 206 | 1.7 | 4.3 | 0.00 | 0.00 | 0.00 | 54 | 1010.3 |
| 20260503110503 | 45 | 176 | 0.9 | 2.6 | 0.00 | 0.00 | 0.00 | 58 | 1009.7 |
| 20260503090503 | 47 | 279 | 0.9 | 5.2 | 0.00 | 0.01 | 0.00 | 54 | 1008.5 |
| 20260503081503 | 48 | 44 | 0.0 | 2.6 | 0.00 | 0.01 | 0.00 | 53 | 1008.5 |
| 20260503080502 | 48 | 177 | 0.9 | 2.6 | 0.00 | 0.01 | 0.00 | 52 | 1008.4 |
| 20260503072503 | 48 | 208 | 1.7 | 2.6 | 0.00 | 0.01 | 0.00 | 50 | 1008.4 |
| 20260503071503 | 49 | 5 | 0.9 | 2.6 | 0.00 | 0.01 | 0.00 | 50 | 1008.4 |
| 20260503055002 | 51 | 106 | 0.9 | 2.6 | 0.00 | 0.01 | 0.00 | 45 | 1008.6 |
| 20260503053503 | 51 | 191 | 0.9 | 2.6 | 0.00 | 0.01 | 0.00 | 44 | 1008.7 |
| 20260503053003 | 51 | 152 | 0.9 | 2.6 | 0.00 | 0.01 | 0.00 | 44 | 1008.7 |
| 20260503051504 | 52 | 194 | 1.7 | 5.2 | 0.00 | 0.01 | 0.00 | 43 | 1009.0 |
| 20260503045503 | 52 | 54 | 0.9 | 4.3 | 0.00 | 0.01 | 0.00 | 43 | 1009.2 |
| 20260503044003 | 52 | 14 | 0.9 | 2.6 | 0.00 | 0.01 | 0.00 | 43 | 1009.1 |
| 20260503043003 | 52 | 181 | 1.7 | 5.2 | 0.00 | 0.01 | 0.00 | 42 | 1009.0 |
| 20260503042503 | 52 | 191 | 2.6 | 6.1 | 0.00 | 0.01 | 0.00 | 42 | 1009.1 |
| 20260503042003 | 53 | 197 | 1.7 | 7.0 | 0.00 | 0.01 | 0.00 | 42 | 1009.2 |
| 20260503041004 | 53 | 242 | 1.7 | 7.0 | 0.00 | 0.01 | 0.00 | 42 | 1009.3 |
| 20260503040503 | 53 | 197 | 1.7 | 4.3 | 0.00 | 0.01 | 0.00 | 42 | 1009.3 |
| 20260503034505 | 53 | 213 | 3.5 | 6.1 | 0.00 | 0.01 | 0.01 | 40 | 1009.1 |